一网星座-0508星 (ONEWEB-0508 )

导读

ONEWEB-0508是英国OneWeb(一网公司)旗下低轨卫星互联网星座的成员,于2022年10月22日由SpaceX发射入轨。该卫星运行于近地轨道,属于OneWeb全球宽带卫星网络的一部分,采用Ku波段服务链路、Ka波段馈线链路设计,为全球提供高速低延迟卫星互联网接入,助力5G/6G非地面网络技术发展,服务政府、企业及偏远地区通信需求。

基本信息
目录编号:
54126
目录名称:
ONEWEB-0508
国际标识:
2022-138P
轨道中心:
EARTH
卫星名称:
一网星座-0508星
卫星全名:
一网星座-0508星 (ONEWEB-0508 )
卫星状态:
在轨 (已飞行1331 天)
发射日期:
2022-10-22 UTC
国别 :
英国 (GB)
星等 :
--
轨道信息
数据来源 国际轨道数据
星历时间: 2026-06-14T06:23:22+0800
13小时前
查看轨道信息
半长轴: 7563.911km
偏心率: 0.000146
轨道倾角: 87.917°
近地点辐角 106.172°
升交点赤经 305.624°
平近点角 253.958°
近地点: 1184.669km
远地点: 1186.879km
周期: 109.114分钟
每日圈数: 13.197241
详细信息
平衡模式:
三轴稳定
覆盖范围:
全球
运营商:
一网卫星公司
运营商所在国:
英国
制造商(研发单位):
一网卫星公司
制造商所在国:
英国
使用方式:
暂无
卫星简介
OneWeb卫星网络由648颗重约125公斤的微型卫星组成,运行在1200公里的轨道上。 每颗卫星都能够提供至少每秒8千兆位的吞吐量,以使用其高吞吐量的Ku频段有效载荷为家庭和移动平台提供互联网接入。该卫星仍在工作。
2D轨道图
3D轨道图
轨道高度分析图
轨道倾角分析图
轨道综合分析图
查看轨道综合分析图